owner,sensor,date,latitude,longitude,vertical_datum,sea_water_practical_salinity,qcFlag 
SCCF RECON,ioos:station:SCCF:13:1,2010-03-01T00:00:00Z,26.5255,-82.0032,2.08,25.97,1111122 
SCCF RECON,ioos:station:SCCF:13:1,2010-03-01T01:00:00Z,26.5255,-82.0032,2.08,24.6,1111122 
SCCF RECON,ioos:station:SCCF:13:1,2010-03-01T02:00:00Z,26.5255,-82.0032,2.2,24.08,1111122 
SCCF RECON,ioos:station:SCCF:13:1,2010-03-01T03:00:00Z,26.5255,-82.0032,2.34,25.63,1111122 
SCCF RECON,ioos:station:SCCF:13:1,2010-03-01T04:00:00Z,26.5255,-82.0032,2.44,27.67,1111122 
SCCF RECON,ioos:station:SCCF:13:1,2010-03-01T05:00:00Z,26.5255,-82.0032,2.538,28.85,1111122 
SCCF RECON,ioos:station:SCCF:13:1,2010-03-01T06:00:00Z,26.5255,-82.0032,2.607,30.65,1111122 
SCCF RECON,ioos:station:SCCF:13:1,2010-03-01T07:00:00Z,26.5255,-82.0032,2.612,30.97,1111122 
SCCF RECON,ioos:station:SCCF:13:1,2010-03-01T08:00:00Z,26.5255,-82.0032,2.512,31.07,1111122 
SCCF RECON,ioos:station:SCCF:13:1,2010-03-01T09:00:00Z,26.5255,-82.0032,2.38,31.34,1111122 
SCCF RECON,ioos:station:SCCF:13:1,2010-03-01T10:00:00Z,26.5255,-82.0032,2.28,30.53,1111122 
SCCF RECON,ioos:station:SCCF:13:1,2010-03-01T11:00:00Z,26.5255,-82.0032,2.22,29.36,1111122 
SCCF RECON,ioos:station:SCCF:13:1,2010-03-01T12:00:00Z,26.5255,-82.0032,2.156,27.79,1111122 
SCCF RECON,ioos:station:SCCF:13:1,2010-03-01T13:00:00Z,26.5255,-82.0032,2.099,26.55,1111122 
SCCF RECON,ioos:station:SCCF:13:1,2010-03-01T14:00:00Z,26.5255,-82.0032,2.11,25.17,1111122 
SCCF RECON,ioos:station:SCCF:13:1,2010-03-01T15:00:00Z,26.5255,-82.0032,2.272,24.53,1111122 
SCCF RECON,ioos:station:SCCF:13:1,2010-03-01T16:00:00Z,26.5255,-82.0032,2.38,26.29,1111122 
SCCF RECON,ioos:station:SCCF:13:1,2010-03-01T17:00:00Z,26.5255,-82.0032,2.44,27.84,1111122 
SCCF RECON,ioos:station:SCCF:13:1,2010-03-01T18:00:00Z,26.5255,-82.0032,2.479,28.94,1111122 
SCCF RECON,ioos:station:SCCF:13:1,2010-03-01T19:00:00Z,26.5255,-82.0032,2.5,30.54,1111122 
SCCF RECON,ioos:station:SCCF:13:1,2010-03-01T20:00:00Z,26.5255,-82.0032,2.46,31.09,1111122 
SCCF RECON,ioos:station:SCCF:13:1,2010-03-01T21:00:00Z,26.5255,-82.0032,2.34,31.2,1111122 
SCCF RECON,ioos:station:SCCF:13:1,2010-03-01T22:00:00Z,26.5255,-82.0032,2.256,30.89,1111122 
SCCF RECON,ioos:station:SCCF:13:1,2010-03-01T23:00:00Z,26.5255,-82.0032,2.18,29.83,1111122 
SCCF RECON,ioos:station:SCCF:13:1,2010-03-02T00:00:00Z,26.5255,-82.0032,2.11,28.59,1111122 
SCCF RECON,ioos:station:SCCF:13:1,2010-03-02T01:00:00Z,26.5255,-82.0032,2.053,27.08,1111122 
SCCF RECON,ioos:station:SCCF:13:1,2010-03-02T02:00:00Z,26.5255,-82.0032,2.06,26.0,1111122 
SCCF RECON,ioos:station:SCCF:13:1,2010-03-02T03:00:00Z,26.5255,-82.0032,2.22,25.53,1111122 
SCCF RECON,ioos:station:SCCF:13:1,2010-03-02T04:00:00Z,26.5255,-82.0032,2.35,27.64,1111122 
SCCF RECON,ioos:station:SCCF:13:1,2010-03-02T05:00:00Z,26.5255,-82.0032,2.431,28.97,1111122 
SCCF RECON,ioos:station:SCCF:13:1,2010-03-02T06:00:00Z,26.5255,-82.0032,2.51,30.17,1111122 
SCCF RECON,ioos:station:SCCF:13:1,2010-03-02T07:00:00Z,26.5255,-82.0032,2.56,31.5,1111122 
SCCF RECON,ioos:station:SCCF:13:1,2010-03-02T08:00:00Z,26.5255,-82.0032,2.55,31.8,1111122 
SCCF RECON,ioos:station:SCCF:13:1,2010-03-02T09:00:00Z,26.5255,-82.0032,2.466,31.94,1111122 
SCCF RECON,ioos:station:SCCF:13:1,2010-03-02T10:00:00Z,26.5255,-82.0032,2.329,31.23,1111122 
SCCF RECON,ioos:station:SCCF:13:1,2010-03-02T11:00:00Z,26.5255,-82.0032,2.243,31.85,1111122 
SCCF RECON,ioos:station:SCCF:13:1,2010-03-02T12:00:00Z,26.5255,-82.0032,2.21,31.18,1111122 
SCCF RECON,ioos:station:SCCF:13:1,2010-03-02T13:00:00Z,26.5255,-82.0032,2.21,29.34,1111122 
SCCF RECON,ioos:station:SCCF:13:1,2010-03-02T14:00:00Z,26.5255,-82.0032,2.33,28.73,1111122 
SCCF RECON,ioos:station:SCCF:13:1,2010-03-02T15:00:00Z,26.5255,-82.0032,2.424,30.84,1111122 
SCCF RECON,ioos:station:SCCF:13:1,2010-03-02T16:00:00Z,26.5255,-82.0032,2.52,31.29,1111122 
SCCF RECON,ioos:station:SCCF:13:1,2010-03-02T17:00:00Z,26.5255,-82.0032,2.599,32.37,1111122 
SCCF RECON,ioos:station:SCCF:13:1,2010-03-02T18:00:00Z,26.5255,-82.0032,2.642,32.9,1111122 
SCCF RECON,ioos:station:SCCF:13:1,2010-03-02T19:00:00Z,26.5255,-82.0032,2.676,33.04,1111122 
SCCF RECON,ioos:station:SCCF:13:1,2010-03-02T20:00:00Z,26.5255,-82.0032,2.67,33.04,1111122 
SCCF RECON,ioos:station:SCCF:13:1,2010-03-02T21:00:00Z,26.5255,-82.0032,2.59,33.06,1111122 
SCCF RECON,ioos:station:SCCF:13:1,2010-03-02T22:00:00Z,26.5255,-82.0032,2.502,33.12,1111122 
SCCF RECON,ioos:station:SCCF:13:1,2010-03-02T23:00:00Z,26.5255,-82.0032,2.41,32.67,1111122 
SCCF RECON,ioos:station:SCCF:13:1,2010-03-03T00:00:00Z,26.5255,-82.0032,2.309,32.76,1111122 
SCCF RECON,ioos:station:SCCF:13:1,2010-03-03T01:00:00Z,26.5255,-82.0032,2.23,32.02,1111122 
SCCF RECON,ioos:station:SCCF:13:1,2010-03-03T02:00:00Z,26.5255,-82.0032,2.17,31.27,1111122 
SCCF RECON,ioos:station:SCCF:13:1,2010-03-03T03:00:00Z,26.5255,-82.0032,2.15,30.21,1111122 
SCCF RECON,ioos:station:SCCF:13:1,2010-03-03T04:00:00Z,26.5255,-82.0032,2.224,28.88,1111122 
SCCF RECON,ioos:station:SCCF:13:1,2010-03-03T05:00:00Z,26.5255,-82.0032,2.3,28.21,1111122 
SCCF RECON,ioos:station:SCCF:13:1,2010-03-03T06:00:00Z,26.5255,-82.0032,2.32,28.08,1111122 
SCCF RECON,ioos:station:SCCF:13:1,2010-03-03T07:00:00Z,26.5255,-82.0032,2.402,28.43,1111122 
SCCF RECON,ioos:station:SCCF:13:1,2010-03-03T08:00:00Z,26.5255,-82.0032,2.427,29.02,1111122 
SCCF RECON,ioos:station:SCCF:13:1,2010-03-03T09:00:00Z,26.5255,-82.0032,2.377,30.02,1111122 
SCCF RECON,ioos:station:SCCF:13:1,2010-03-03T10:00:00Z,26.5255,-82.0032,2.28,29.48,1111122 
SCCF RECON,ioos:station:SCCF:13:1,2010-03-03T11:00:00Z,26.5255,-82.0032,2.202,28.11,1111122 
SCCF RECON,ioos:station:SCCF:13:1,2010-03-03T12:00:00Z,26.5255,-82.0032,2.14,27.46,1111122 
SCCF RECON,ioos:station:SCCF:13:1,2010-03-03T13:00:00Z,26.5255,-82.0032,2.1,26.24,1111122 
SCCF RECON,ioos:station:SCCF:13:1,2010-03-03T14:00:00Z,26.5255,-82.0032,2.05,25.5,1111122 
SCCF RECON,ioos:station:SCCF:13:1,2010-03-03T15:00:00Z,26.5255,-82.0032,2.05,24.66,1111122 
SCCF RECON,ioos:station:SCCF:13:1,2010-03-03T16:00:00Z,26.5255,-82.0032,2.16,24.28,1111122 
SCCF RECON,ioos:station:SCCF:13:1,2010-03-03T17:00:00Z,26.5255,-82.0032,2.265,24.61,1111122 
SCCF RECON,ioos:station:SCCF:13:1,2010-03-03T18:00:00Z,26.5255,-82.0032,2.33,25.56,1111122 
SCCF RECON,ioos:station:SCCF:13:1,2010-03-03T19:00:00Z,26.5255,-82.0032,2.381,26.98,1111122 
SCCF RECON,ioos:station:SCCF:13:1,2010-03-03T20:00:00Z,26.5255,-82.0032,2.39,28.4,1111122 
SCCF RECON,ioos:station:SCCF:13:1,2010-03-03T21:00:00Z,26.5255,-82.0032,2.342,28.89,1111122 
SCCF RECON,ioos:station:SCCF:13:1,2010-03-03T22:00:00Z,26.5255,-82.0032,2.263,29.04,1111122 
SCCF RECON,ioos:station:SCCF:13:1,2010-03-03T23:00:00Z,26.5255,-82.0032,2.191,27.95,1111122 
SCCF RECON,ioos:station:SCCF:13:1,2010-03-04T00:00:00Z,26.5255,-82.0032,2.14,26.64,1111122 
SCCF RECON,ioos:station:SCCF:13:1,2010-03-04T01:00:00Z,26.5255,-82.0032,2.08,25.91,1111122 
SCCF RECON,ioos:station:SCCF:13:1,2010-03-04T02:00:00Z,26.5255,-82.0032,2.01,24.62,1111122 
SCCF RECON,ioos:station:SCCF:13:1,2010-03-04T03:00:00Z,26.5255,-82.0032,1.954,23.79,1111122 
SCCF RECON,ioos:station:SCCF:13:1,2010-03-04T04:00:00Z,26.5255,-82.0032,1.94,23.04,1111122 
SCCF RECON,ioos:station:SCCF:13:1,2010-03-04T05:00:00Z,26.5255,-82.0032,2.03,22.39,1111122 
SCCF RECON,ioos:station:SCCF:13:1,2010-03-04T06:00:00Z,26.5255,-82.0032,2.18,22.27,1111122 
SCCF RECON,ioos:station:SCCF:13:1,2010-03-04T07:00:00Z,26.5255,-82.0032,2.26,24.47,1111122 
SCCF RECON,ioos:station:SCCF:13:1,2010-03-04T08:00:00Z,26.5255,-82.0032,2.311,25.55,1111122 
SCCF RECON,ioos:station:SCCF:13:1,2010-03-04T09:00:00Z,26.5255,-82.0032,2.35,26.98,1111122 
SCCF RECON,ioos:station:SCCF:13:1,2010-03-04T10:00:00Z,26.5255,-82.0032,2.31,29.08,1111122 
SCCF RECON,ioos:station:SCCF:13:1,2010-03-04T11:00:00Z,26.5255,-82.0032,2.23,30.0,1111122 
SCCF RECON,ioos:station:SCCF:13:1,2010-03-04T12:00:00Z,26.5255,-82.0032,2.2,29.71,1111122 
SCCF RECON,ioos:station:SCCF:13:1,2010-03-04T13:00:00Z,26.5255,-82.0032,2.17,27.04,1111122 
SCCF RECON,ioos:station:SCCF:13:1,2010-03-04T14:00:00Z,26.5255,-82.0032,2.14,25.19,1111122 
SCCF RECON,ioos:station:SCCF:13:1,2010-03-04T15:00:00Z,26.5255,-82.0032,2.14,24.21,1111122 
SCCF RECON,ioos:station:SCCF:13:1,2010-03-04T16:00:00Z,26.5255,-82.0032,2.137,23.32,1111122 
SCCF RECON,ioos:station:SCCF:13:1,2010-03-04T17:00:00Z,26.5255,-82.0032,2.221,22.85,1111122 
SCCF RECON,ioos:station:SCCF:13:1,2010-03-04T18:00:00Z,26.5255,-82.0032,2.319,25.11,1111122 
SCCF RECON,ioos:station:SCCF:13:1,2010-03-04T19:00:00Z,26.5255,-82.0032,2.381,26.32,1111122 
SCCF RECON,ioos:station:SCCF:13:1,2010-03-04T20:00:00Z,26.5255,-82.0032,2.42,28.0,1111122 
SCCF RECON,ioos:station:SCCF:13:1,2010-03-04T21:00:00Z,26.5255,-82.0032,2.39,28.93,1111122 
SCCF RECON,ioos:station:SCCF:13:1,2010-03-04T22:00:00Z,26.5255,-82.0032,2.306,29.75,1111122 
SCCF RECON,ioos:station:SCCF:13:1,2010-03-04T23:00:00Z,26.5255,-82.0032,2.24,29.59,1111122 
SCCF RECON,ioos:station:SCCF:13:1,2010-03-05T00:00:00Z,26.5255,-82.0032,2.18,27.82,1111122 
SCCF RECON,ioos:station:SCCF:13:1,2010-03-05T01:00:00Z,26.5255,-82.0032,2.12,26.7,1111122 
SCCF RECON,ioos:station:SCCF:13:1,2010-03-05T02:00:00Z,26.5255,-82.0032,2.06,25.81,1111122 
SCCF RECON,ioos:station:SCCF:13:1,2010-03-05T03:00:00Z,26.5255,-82.0032,1.99,23.93,1111122 
SCCF RECON,ioos:station:SCCF:13:1,2010-03-05T04:00:00Z,26.5255,-82.0032,1.94,22.61,1111122 
SCCF RECON,ioos:station:SCCF:13:1,2010-03-05T05:00:00Z,26.5255,-82.0032,1.95,21.99,1111122 
SCCF RECON,ioos:station:SCCF:13:1,2010-03-05T06:00:00Z,26.5255,-82.0032,2.03,21.18,1111122 
SCCF RECON,ioos:station:SCCF:13:1,2010-03-05T07:00:00Z,26.5255,-82.0032,2.12,20.98,1111122 
SCCF RECON,ioos:station:SCCF:13:1,2010-03-05T08:00:00Z,26.5255,-82.0032,2.17,21.32,1111122 
SCCF RECON,ioos:station:SCCF:13:1,2010-03-05T09:00:00Z,26.5255,-82.0032,2.2,24.29,1111122 
SCCF RECON,ioos:station:SCCF:13:1,2010-03-05T10:00:00Z,26.5255,-82.0032,2.22,25.27,1111122 
SCCF RECON,ioos:station:SCCF:13:1,2010-03-05T11:00:00Z,26.5255,-82.0032,2.21,26.3,1111122 
SCCF RECON,ioos:station:SCCF:13:1,2010-03-05T12:00:00Z,26.5255,-82.0032,2.17,26.98,1111122 
SCCF RECON,ioos:station:SCCF:13:1,2010-03-05T13:00:00Z,26.5255,-82.0032,2.14,26.85,1111122 
SCCF RECON,ioos:station:SCCF:13:1,2010-03-05T14:00:00Z,26.5255,-82.0032,2.14,25.47,1111122 
SCCF RECON,ioos:station:SCCF:13:1,2010-03-05T15:00:00Z,26.5255,-82.0032,2.16,23.38,1111122 
SCCF RECON,ioos:station:SCCF:13:1,2010-03-05T16:00:00Z,26.5255,-82.0032,2.18,22.71,1111122 
SCCF RECON,ioos:station:SCCF:13:1,2010-03-05T17:00:00Z,26.5255,-82.0032,2.23,27.88,1111122 
SCCF RECON,ioos:station:SCCF:13:1,2010-03-05T18:00:00Z,26.5255,-82.0032,2.302,26.72,1111122 
SCCF RECON,ioos:station:SCCF:13:1,2010-03-05T19:00:00Z,26.5255,-82.0032,2.381,30.14,1111122 
SCCF RECON,ioos:station:SCCF:13:1,2010-03-05T20:00:00Z,26.5255,-82.0032,2.441,30.47,1111122 
SCCF RECON,ioos:station:SCCF:13:1,2010-03-05T21:00:00Z,26.5255,-82.0032,2.46,31.03,1111122 
SCCF RECON,ioos:station:SCCF:13:1,2010-03-05T22:00:00Z,26.5255,-82.0032,2.42,31.4,1111122 
SCCF RECON,ioos:station:SCCF:13:1,2010-03-05T23:00:00Z,26.5255,-82.0032,2.332,31.6,1111122 
SCCF RECON,ioos:station:SCCF:13:1,2010-03-06T00:00:00Z,26.5255,-82.0032,2.277,31.39,1111122 
SCCF RECON,ioos:station:SCCF:13:1,2010-03-06T01:00:00Z,26.5255,-82.0032,2.22,29.25,1111122 
SCCF RECON,ioos:station:SCCF:13:1,2010-03-06T02:00:00Z,26.5255,-82.0032,2.17,29.5,1111122 
SCCF RECON,ioos:station:SCCF:13:1,2010-03-06T03:00:00Z,26.5255,-82.0032,2.11,28.01,1111122 
SCCF RECON,ioos:station:SCCF:13:1,2010-03-06T04:00:00Z,26.5255,-82.0032,2.05,25.82,1111122 
SCCF RECON,ioos:station:SCCF:13:1,2010-03-06T05:00:00Z,26.5255,-82.0032,1.998,24.02,1111122 
SCCF RECON,ioos:station:SCCF:13:1,2010-03-06T06:00:00Z,26.5255,-82.0032,1.976,22.36,1111122 
SCCF RECON,ioos:station:SCCF:13:1,2010-03-06T07:00:00Z,26.5255,-82.0032,2.01,21.27,1111122 
SCCF RECON,ioos:station:SCCF:13:1,2010-03-06T08:00:00Z,26.5255,-82.0032,2.05,20.81,1111122 
SCCF RECON,ioos:station:SCCF:13:1,2010-03-06T09:00:00Z,26.5255,-82.0032,2.089,20.29,1111122 
SCCF RECON,ioos:station:SCCF:13:1,2010-03-06T10:00:00Z,26.5255,-82.0032,2.1,19.98,1111122 
SCCF RECON,ioos:station:SCCF:13:1,2010-03-06T11:00:00Z,26.5255,-82.0032,2.1,19.92,1111122 
SCCF RECON,ioos:station:SCCF:13:1,2010-03-06T12:00:00Z,26.5255,-82.0032,2.1,23.47,1111122 
SCCF RECON,ioos:station:SCCF:13:1,2010-03-06T13:00:00Z,26.5255,-82.0032,2.1,25.8,1111122 
SCCF RECON,ioos:station:SCCF:13:1,2010-03-06T14:00:00Z,26.5255,-82.0032,2.09,26.58,1111122 
SCCF RECON,ioos:station:SCCF:13:1,2010-03-06T15:00:00Z,26.5255,-82.0032,2.088,25.29,1111122 
SCCF RECON,ioos:station:SCCF:13:1,2010-03-06T16:00:00Z,26.5255,-82.0032,2.11,26.47,1111122 
SCCF RECON,ioos:station:SCCF:13:1,2010-03-06T17:00:00Z,26.5255,-82.0032,2.159,25.95,1111122 
SCCF RECON,ioos:station:SCCF:13:1,2010-03-06T18:00:00Z,26.5255,-82.0032,2.22,26.25,1111122 
SCCF RECON,ioos:station:SCCF:13:1,2010-03-06T19:00:00Z,26.5255,-82.0032,2.3,29.41,1111122 
SCCF RECON,ioos:station:SCCF:13:1,2010-03-06T20:00:00Z,26.5255,-82.0032,2.36,30.28,1111122 
SCCF RECON,ioos:station:SCCF:13:1,2010-03-06T21:00:00Z,26.5255,-82.0032,2.42,30.41,1111122 
SCCF RECON,ioos:station:SCCF:13:1,2010-03-06T22:00:00Z,26.5255,-82.0032,2.433,30.72,1111122 
SCCF RECON,ioos:station:SCCF:13:1,2010-03-06T23:00:00Z,26.5255,-82.0032,2.397,30.66,1111122 
SCCF RECON,ioos:station:SCCF:13:1,2010-03-07T00:00:00Z,26.5255,-82.0032,2.327,30.78,1111122 
SCCF RECON,ioos:station:SCCF:13:1,2010-03-07T01:00:00Z,26.5255,-82.0032,2.269,30.71,1111122 
SCCF RECON,ioos:station:SCCF:13:1,2010-03-07T02:00:00Z,26.5255,-82.0032,2.23,28.42,1111122 
SCCF RECON,ioos:station:SCCF:13:1,2010-03-07T03:00:00Z,26.5255,-82.0032,2.18,29.14,1111122 
SCCF RECON,ioos:station:SCCF:13:1,2010-03-07T04:00:00Z,26.5255,-82.0032,2.12,28.9,1111122 
SCCF RECON,ioos:station:SCCF:13:1,2010-03-07T05:00:00Z,26.5255,-82.0032,2.059,26.25,1111122 
SCCF RECON,ioos:station:SCCF:13:1,2010-03-07T06:00:00Z,26.5255,-82.0032,2.0,23.63,1111122 
SCCF RECON,ioos:station:SCCF:13:1,2010-03-07T07:00:00Z,26.5255,-82.0032,1.97,22.37,1111122 
SCCF RECON,ioos:station:SCCF:13:1,2010-03-07T08:00:00Z,26.5255,-82.0032,1.98,21.64,1111122 
SCCF RECON,ioos:station:SCCF:13:1,2010-03-07T09:00:00Z,26.5255,-82.0032,2.03,20.69,1111122 
SCCF RECON,ioos:station:SCCF:13:1,2010-03-07T10:00:00Z,26.5255,-82.0032,2.07,20.12,1111122 
SCCF RECON,ioos:station:SCCF:13:1,2010-03-07T11:00:00Z,26.5255,-82.0032,2.112,19.96,1111122 
SCCF RECON,ioos:station:SCCF:13:1,2010-03-07T12:00:00Z,26.5255,-82.0032,2.163,24.72,1111122 
SCCF RECON,ioos:station:SCCF:13:1,2010-03-07T13:00:00Z,26.5255,-82.0032,2.19,25.68,1111122 
SCCF RECON,ioos:station:SCCF:13:1,2010-03-07T14:00:00Z,26.5255,-82.0032,2.19,26.61,1111122 
SCCF RECON,ioos:station:SCCF:13:1,2010-03-07T15:00:00Z,26.5255,-82.0032,2.18,26.59,1111122 
SCCF RECON,ioos:station:SCCF:13:1,2010-03-07T16:00:00Z,26.5255,-82.0032,2.207,27.03,1111122 
SCCF RECON,ioos:station:SCCF:13:1,2010-03-07T17:00:00Z,26.5255,-82.0032,2.22,27.21,1111122 
SCCF RECON,ioos:station:SCCF:13:1,2010-03-07T18:00:00Z,26.5255,-82.0032,2.265,28.36,1111122 
SCCF RECON,ioos:station:SCCF:13:1,2010-03-07T19:00:00Z,26.5255,-82.0032,2.32,30.08,1111122 
SCCF RECON,ioos:station:SCCF:13:1,2010-03-07T20:00:00Z,26.5255,-82.0032,2.38,30.99,1111122 
SCCF RECON,ioos:station:SCCF:13:1,2010-03-07T21:00:00Z,26.5255,-82.0032,2.42,31.45,1111122 
SCCF RECON,ioos:station:SCCF:13:1,2010-03-07T22:00:00Z,26.5255,-82.0032,2.45,31.57,1111122 
SCCF RECON,ioos:station:SCCF:13:1,2010-03-07T23:00:00Z,26.5255,-82.0032,2.47,31.28,1111122 
SCCF RECON,ioos:station:SCCF:13:1,2010-03-08T00:00:00Z,26.5255,-82.0032,2.44,31.35,1111122 
SCCF RECON,ioos:station:SCCF:13:1,2010-03-08T01:00:00Z,26.5255,-82.0032,2.39,31.3,1111122 
SCCF RECON,ioos:station:SCCF:13:1,2010-03-08T02:00:00Z,26.5255,-82.0032,2.34,31.35,1111122 
SCCF RECON,ioos:station:SCCF:13:1,2010-03-08T03:00:00Z,26.5255,-82.0032,2.287,30.13,1111122 
SCCF RECON,ioos:station:SCCF:13:1,2010-03-08T04:00:00Z,26.5255,-82.0032,2.232,30.17,1111122 
SCCF RECON,ioos:station:SCCF:13:1,2010-03-08T05:00:00Z,26.5255,-82.0032,2.17,27.45,1111122 
SCCF RECON,ioos:station:SCCF:13:1,2010-03-08T06:00:00Z,26.5255,-82.0032,2.11,25.16,1111122 
SCCF RECON,ioos:station:SCCF:13:1,2010-03-08T07:00:00Z,26.5255,-82.0032,2.05,23.77,1111122 
SCCF RECON,ioos:station:SCCF:13:1,2010-03-08T08:00:00Z,26.5255,-82.0032,2.01,23.35,1111122 
SCCF RECON,ioos:station:SCCF:13:1,2010-03-08T09:00:00Z,26.5255,-82.0032,2.02,22.59,1111122 
SCCF RECON,ioos:station:SCCF:13:1,2010-03-08T10:00:00Z,26.5255,-82.0032,2.07,21.73,1111122 
SCCF RECON,ioos:station:SCCF:13:1,2010-03-08T11:00:00Z,26.5255,-82.0032,2.12,21.31,1111122 
SCCF RECON,ioos:station:SCCF:13:1,2010-03-08T12:00:00Z,26.5255,-82.0032,2.19,21.62,1111122 
SCCF RECON,ioos:station:SCCF:13:1,2010-03-08T13:00:00Z,26.5255,-82.0032,2.25,25.89,1111122 
SCCF RECON,ioos:station:SCCF:13:1,2010-03-08T14:00:00Z,26.5255,-82.0032,2.29,27.07,1111122 
SCCF RECON,ioos:station:SCCF:13:1,2010-03-08T15:00:00Z,26.5255,-82.0032,2.32,28.24,1111122 
SCCF RECON,ioos:station:SCCF:13:1,2010-03-08T16:00:00Z,26.5255,-82.0032,2.33,29.41,1111122 
SCCF RECON,ioos:station:SCCF:13:1,2010-03-08T17:00:00Z,26.5255,-82.0032,2.313,30.11,1111122 
SCCF RECON,ioos:station:SCCF:13:1,2010-03-08T18:00:00Z,26.5255,-82.0032,2.33,30.68,1111122 
SCCF RECON,ioos:station:SCCF:13:1,2010-03-08T19:00:00Z,26.5255,-82.0032,2.36,30.6,1111122 
SCCF RECON,ioos:station:SCCF:13:1,2010-03-08T20:00:00Z,26.5255,-82.0032,2.39,30.94,1111122 
SCCF RECON,ioos:station:SCCF:13:1,2010-03-08T21:00:00Z,26.5255,-82.0032,2.426,31.02,1111122 
SCCF RECON,ioos:station:SCCF:13:1,2010-03-08T22:00:00Z,26.5255,-82.0032,2.49,31.21,1111122 
SCCF RECON,ioos:station:SCCF:13:1,2010-03-08T23:00:00Z,26.5255,-82.0032,2.514,31.43,1111122 
SCCF RECON,ioos:station:SCCF:13:1,2010-03-09T00:00:00Z,26.5255,-82.0032,2.51,31.5,1111122 
SCCF RECON,ioos:station:SCCF:13:1,2010-03-09T01:00:00Z,26.5255,-82.0032,2.49,31.6,1111122 
SCCF RECON,ioos:station:SCCF:13:1,2010-03-09T02:00:00Z,26.5255,-82.0032,2.46,31.62,1111122 
SCCF RECON,ioos:station:SCCF:13:1,2010-03-09T03:00:00Z,26.5255,-82.0032,2.42,31.59,1111122 
SCCF RECON,ioos:station:SCCF:13:1,2010-03-09T04:00:00Z,26.5255,-82.0032,2.36,30.7,1111122 
SCCF RECON,ioos:station:SCCF:13:1,2010-03-09T05:00:00Z,26.5255,-82.0032,2.281,29.37,1111122 
SCCF RECON,ioos:station:SCCF:13:1,2010-03-09T06:00:00Z,26.5255,-82.0032,2.221,27.75,1111122 
SCCF RECON,ioos:station:SCCF:13:1,2010-03-09T07:00:00Z,26.5255,-82.0032,2.15,25.93,1111122 
SCCF RECON,ioos:station:SCCF:13:1,2010-03-09T08:00:00Z,26.5255,-82.0032,2.08,25.28,1111122 
SCCF RECON,ioos:station:SCCF:13:1,2010-03-09T09:00:00Z,26.5255,-82.0032,2.06,24.71,1111122 
SCCF RECON,ioos:station:SCCF:13:1,2010-03-09T10:00:00Z,26.5255,-82.0032,2.08,23.86,1111122 
SCCF RECON,ioos:station:SCCF:13:1,2010-03-09T11:00:00Z,26.5255,-82.0032,2.16,23.09,1111122 
SCCF RECON,ioos:station:SCCF:13:1,2010-03-09T12:00:00Z,26.5255,-82.0032,2.224,22.88,1111122 
SCCF RECON,ioos:station:SCCF:13:1,2010-03-09T13:00:00Z,26.5255,-82.0032,2.27,24.89,1111122 
SCCF RECON,ioos:station:SCCF:13:1,2010-03-09T14:00:00Z,26.5255,-82.0032,2.312,26.83,1111122 
SCCF RECON,ioos:station:SCCF:13:1,2010-03-09T15:00:00Z,26.5255,-82.0032,2.36,28.32,1111122 
SCCF RECON,ioos:station:SCCF:13:1,2010-03-09T16:00:00Z,26.5255,-82.0032,2.38,29.27,1111122 
SCCF RECON,ioos:station:SCCF:13:1,2010-03-09T17:00:00Z,26.5255,-82.0032,2.39,30.11,1111122 
SCCF RECON,ioos:station:SCCF:13:1,2010-03-09T18:00:00Z,26.5255,-82.0032,2.43,31.05,1111122 
SCCF RECON,ioos:station:SCCF:13:1,2010-03-09T19:00:00Z,26.5255,-82.0032,2.43,31.35,1111122 
SCCF RECON,ioos:station:SCCF:13:1,2010-03-09T20:00:00Z,26.5255,-82.0032,2.391,31.38,1111122 
SCCF RECON,ioos:station:SCCF:13:1,2010-03-09T21:00:00Z,26.5255,-82.0032,2.377,31.47,1111122 
SCCF RECON,ioos:station:SCCF:13:1,2010-03-09T22:00:00Z,26.5255,-82.0032,2.42,31.48,1111122 
SCCF RECON,ioos:station:SCCF:13:1,2010-03-09T23:00:00Z,26.5255,-82.0032,2.484,31.05,1111122 
SCCF RECON,ioos:station:SCCF:13:1,2010-03-10T00:00:00Z,26.5255,-82.0032,2.54,31.15,1111122 
SCCF RECON,ioos:station:SCCF:13:1,2010-03-10T01:00:00Z,26.5255,-82.0032,2.57,31.27,1111122 
SCCF RECON,ioos:station:SCCF:13:1,2010-03-10T02:00:00Z,26.5255,-82.0032,2.55,31.68,1111122 
SCCF RECON,ioos:station:SCCF:13:1,2010-03-10T03:00:00Z,26.5255,-82.0032,2.5,31.9,1111122 
SCCF RECON,ioos:station:SCCF:13:1,2010-03-10T04:00:00Z,26.5255,-82.0032,2.477,31.95,1111122 
SCCF RECON,ioos:station:SCCF:13:1,2010-03-10T05:00:00Z,26.5255,-82.0032,2.39,30.47,1111122 
SCCF RECON,ioos:station:SCCF:13:1,2010-03-10T06:00:00Z,26.5255,-82.0032,2.31,28.29,1111122 
SCCF RECON,ioos:station:SCCF:13:1,2010-03-10T07:00:00Z,26.5255,-82.0032,2.24,27.95,1111122 
SCCF RECON,ioos:station:SCCF:13:1,2010-03-10T08:00:00Z,26.5255,-82.0032,2.17,26.43,1111122 
SCCF RECON,ioos:station:SCCF:13:1,2010-03-10T09:00:00Z,26.5255,-82.0032,2.09,25.27,1111122 
SCCF RECON,ioos:station:SCCF:13:1,2010-03-10T10:00:00Z,26.5255,-82.0032,2.062,24.78,1111122 
SCCF RECON,ioos:station:SCCF:13:1,2010-03-10T11:00:00Z,26.5255,-82.0032,2.08,24.37,1111122 
SCCF RECON,ioos:station:SCCF:13:1,2010-03-10T12:00:00Z,26.5255,-82.0032,2.19,23.81,1111122 
SCCF RECON,ioos:station:SCCF:13:1,2010-03-10T13:00:00Z,26.5255,-82.0032,2.26,23.55,1111122 
SCCF RECON,ioos:station:SCCF:13:1,2010-03-10T14:00:00Z,26.5255,-82.0032,2.3,25.3,1111122 
SCCF RECON,ioos:station:SCCF:13:1,2010-03-10T15:00:00Z,26.5255,-82.0032,2.343,26.34,1111122 
SCCF RECON,ioos:station:SCCF:13:1,2010-03-10T16:00:00Z,26.5255,-82.0032,2.38,28.15,1111122 
SCCF RECON,ioos:station:SCCF:13:1,2010-03-10T17:00:00Z,26.5255,-82.0032,2.398,29.34,1111122 
SCCF RECON,ioos:station:SCCF:13:1,2010-03-10T18:00:00Z,26.5255,-82.0032,2.4,31.01,1111122 
SCCF RECON,ioos:station:SCCF:13:1,2010-03-10T19:00:00Z,26.5255,-82.0032,2.391,31.42,1111122 
SCCF RECON,ioos:station:SCCF:13:1,2010-03-10T20:00:00Z,26.5255,-82.0032,2.38,31.54,1111122 
SCCF RECON,ioos:station:SCCF:13:1,2010-03-10T21:00:00Z,26.5255,-82.0032,2.35,31.6,1111122 
SCCF RECON,ioos:station:SCCF:13:1,2010-03-10T22:00:00Z,26.5255,-82.0032,2.372,31.54,1111122 
SCCF RECON,ioos:station:SCCF:13:1,2010-03-10T23:00:00Z,26.5255,-82.0032,2.42,31.54,1111122 
SCCF RECON,ioos:station:SCCF:13:1,2010-03-11T00:00:00Z,26.5255,-82.0032,2.47,31.37,1111122 
SCCF RECON,ioos:station:SCCF:13:1,2010-03-11T01:00:00Z,26.5255,-82.0032,2.51,31.55,1111122 
SCCF RECON,ioos:station:SCCF:13:1,2010-03-11T02:00:00Z,26.5255,-82.0032,2.559,31.67,1111122 
SCCF RECON,ioos:station:SCCF:13:1,2010-03-11T03:00:00Z,26.5255,-82.0032,2.579,32.03,1111122 
SCCF RECON,ioos:station:SCCF:13:1,2010-03-11T04:00:00Z,26.5255,-82.0032,2.557,32.05,1111122 
SCCF RECON,ioos:station:SCCF:13:1,2010-03-11T05:00:00Z,26.5255,-82.0032,2.489,32.06,1111122 
SCCF RECON,ioos:station:SCCF:13:1,2010-03-11T06:00:00Z,26.5255,-82.0032,2.398,31.29,1111122 
SCCF RECON,ioos:station:SCCF:13:1,2010-03-11T07:00:00Z,26.5255,-82.0032,2.31,29.11,1111122 
SCCF RECON,ioos:station:SCCF:13:1,2010-03-11T08:00:00Z,26.5255,-82.0032,2.23,28.77,1111122 
SCCF RECON,ioos:station:SCCF:13:1,2010-03-11T09:00:00Z,26.5255,-82.0032,2.16,27.56,1111122 
SCCF RECON,ioos:station:SCCF:13:1,2010-03-11T10:00:00Z,26.5255,-82.0032,2.1,26.38,1111122 
SCCF RECON,ioos:station:SCCF:13:1,2010-03-11T11:00:00Z,26.5255,-82.0032,2.08,25.67,1111122 
SCCF RECON,ioos:station:SCCF:13:1,2010-03-11T12:00:00Z,26.5255,-82.0032,2.131,25.14,1111122 
SCCF RECON,ioos:station:SCCF:13:1,2010-03-11T13:00:00Z,26.5255,-82.0032,2.23,24.87,1111122 
SCCF RECON,ioos:station:SCCF:13:1,2010-03-11T14:00:00Z,26.5255,-82.0032,2.308,25.48,1111122 
SCCF RECON,ioos:station:SCCF:13:1,2010-03-11T15:00:00Z,26.5255,-82.0032,2.377,27.09,1111122 
SCCF RECON,ioos:station:SCCF:13:1,2010-03-11T16:00:00Z,26.5255,-82.0032,2.44,29.25,1111122 
SCCF RECON,ioos:station:SCCF:13:1,2010-03-11T17:00:00Z,26.5255,-82.0032,2.473,31.92,1111122 
SCCF RECON,ioos:station:SCCF:13:1,2010-03-11T18:00:00Z,26.5255,-82.0032,2.481,32.32,1111122 